Time,TemperatureF,DewpointF,PressureIn,WindDirection,WindDirectionDegrees,WindSpeedMPH,WindSpeedGustMPH,Humidity,HourlyPrecipIn,Conditions,Clouds,dailyrainin,SolarRadiationWatts/m^2,SoftwareType,DateUTC
2013-07-05 00:02:00,66.0,59.0,-100.00,NW,313,4.0,6.0,78,0.00,,,0.19,0.000000,,2013-07-05 06:02:00,
2013-07-05 00:44:00,70.0,53.0,-100.00,WNW,288,3.0,6.0,55,0.00,,,0.19,0.000000,,2013-07-05 06:44:00,
2013-07-05 00:53:00,70.0,53.0,-100.00,WNW,288,3.0,6.0,55,0.00,,,0.19,0.000000,,2013-07-05 06:53:00,
2013-07-05 01:02:00,70.0,53.0,-100.00,WNW,288,3.0,6.0,55,0.00,,,0.19,0.000000,,2013-07-05 07:02:00,
2013-07-05 01:12:00,70.0,53.0,-100.00,WNW,288,3.0,6.0,55,0.00,,,0.19,0.000000,,2013-07-05 07:12:00,
2013-07-05 01:43:00,70.0,55.0,-100.00,West,259,7.0,25.0,60,0.00,,,0.19,0.000000,,2013-07-05 07:43:00,
2013-07-05 01:53:00,70.0,55.0,-100.00,West,259,7.0,25.0,60,0.00,,,0.19,0.000000,,2013-07-05 07:53:00,
2013-07-05 02:02:00,70.0,55.0,-100.00,West,259,7.0,25.0,60,0.00,,,0.19,0.000000,,2013-07-05 08:02:00,
2013-07-05 02:12:00,70.0,55.0,-100.00,West,259,7.0,25.0,60,0.00,,,0.19,0.000000,,2013-07-05 08:12:00,
2013-07-05 02:13:00,69.0,56.0,-100.00,WNW,286,10.0,16.0,63,0.00,,,0.19,0.000000,,2013-07-05 08:13:00,
2013-07-05 02:44:00,69.0,56.0,-100.00,WNW,286,10.0,16.0,63,0.00,,,0.19,0.000000,,2013-07-05 08:44:00,
2013-07-05 02:57:00,69.0,56.0,-100.00,WNW,286,10.0,16.0,63,0.00,,,0.19,0.000000,,2013-07-05 08:57:00,
2013-07-05 03:07:00,69.0,56.0,-100.00,WNW,286,10.0,16.0,63,0.00,,,0.19,0.000000,,2013-07-05 09:07:00,
2013-07-05 03:13:00,69.0,55.0,-100.00,WNW,287,8.0,16.0,61,0.00,,,-99.99,0.000000,,2013-07-05 09:13:00,
2013-07-05 03:48:00,69.0,55.0,-100.00,WNW,287,8.0,16.0,61,0.00,,,-99.99,0.000000,,2013-07-05 09:48:00,
2013-07-05 03:56:00,69.0,55.0,-100.00,WNW,287,8.0,16.0,61,0.00,,,-99.99,0.000000,,2013-07-05 09:56:00,
2013-07-05 04:06:00,69.0,55.0,-100.00,WNW,287,8.0,16.0,61,0.00,,,-99.99,0.000000,,2013-07-05 10:06:00,
2013-07-05 04:13:00,69.0,55.0,-100.00,WNW,295,10.0,15.0,60,0.00,,,0.19,0.000000,,2013-07-05 10:13:00,
2013-07-05 04:47:00,69.0,55.0,-100.00,WNW,295,10.0,15.0,60,0.00,,,0.19,0.000000,,2013-07-05 10:47:00,
2013-07-05 04:57:00,69.0,55.0,-100.00,WNW,295,10.0,15.0,60,0.00,,,0.19,0.000000,,2013-07-05 10:57:00,
2013-07-05 05:13:00,66.0,53.0,-100.00,South,180,3.0,14.0,64,0.00,,,0.19,0.000000,,2013-07-05 11:13:00,
2013-07-05 05:38:00,66.0,53.0,-100.00,South,180,3.0,14.0,64,0.00,,,0.19,0.000000,,2013-07-05 11:38:00,
2013-07-05 05:50:00,66.0,53.0,-100.00,South,180,3.0,14.0,64,0.00,,,0.19,0.000000,,2013-07-05 11:50:00,
2013-07-05 06:00:00,66.0,53.0,-100.00,South,180,3.0,14.0,64,0.00,,,0.19,0.000000,,2013-07-05 12:00:00,
2013-07-05 06:07:00,66.0,53.0,-100.00,South,180,3.0,14.0,64,0.00,,,0.19,0.000000,,2013-07-05 12:07:00,
2013-07-05 06:13:00,67.0,53.0,-100.00,WNW,300,1.0,5.0,61,0.00,,,0.19,6.000000,,2013-07-05 12:13:00,
2013-07-05 06:50:00,67.0,53.0,-100.00,WNW,300,1.0,5.0,61,0.00,,,0.19,6.000000,,2013-07-05 12:50:00,
2013-07-05 07:00:00,67.0,53.0,-100.00,WNW,300,1.0,5.0,61,0.00,,,0.19,6.000000,,2013-07-05 13:00:00,
2013-07-05 07:05:00,67.0,53.0,-100.00,WNW,300,1.0,5.0,61,0.00,,,0.19,6.000000,,2013-07-05 13:05:00,
2013-07-05 07:13:00,67.0,55.0,-100.00,NW,326,3.0,4.0,65,0.00,,,0.19,59.000000,,2013-07-05 13:13:00,
2013-07-05 07:58:00,67.0,55.0,-100.00,NW,326,3.0,4.0,65,0.00,,,0.19,59.000000,,2013-07-05 13:58:00,
2013-07-05 08:07:00,67.0,55.0,-100.00,NW,326,3.0,4.0,65,0.00,,,0.19,59.000000,,2013-07-05 14:07:00,
2013-07-05 08:13:00,67.0,56.0,-100.00,WNW,301,2.0,3.0,68,0.00,,,0.19,42.000000,,2013-07-05 14:13:00,
2013-07-05 08:39:00,67.0,56.0,-100.00,WNW,301,2.0,3.0,68,0.00,,,0.19,42.000000,,2013-07-05 14:39:00,
2013-07-05 08:47:00,67.0,56.0,-100.00,WNW,301,2.0,3.0,68,0.00,,,0.19,42.000000,,2013-07-05 14:47:00,
2013-07-05 08:57:00,67.0,56.0,-100.00,WNW,301,2.0,3.0,68,0.00,,,0.19,42.000000,,2013-07-05 14:57:00,
2013-07-05 09:05:00,67.0,56.0,-100.00,WNW,301,2.0,3.0,68,0.00,,,0.19,42.000000,,2013-07-05 15:05:00,
2013-07-05 09:43:00,68.0,60.0,-100.00,NW,313,5.0,6.0,76,0.00,,,0.19,99.000000,,2013-07-05 15:43:00,
2013-07-05 10:11:00,68.0,60.0,-100.00,NW,313,5.0,6.0,76,0.00,,,0.19,99.000000,,2013-07-05 16:11:00,
2013-07-05 10:33:00,73.0,56.0,-100.00,NNW,334,3.0,6.0,55,0.00,,,0.19,203.000000,,2013-07-05 16:33:00,
2013-07-05 10:44:00,73.0,56.0,-100.00,NNW,334,3.0,6.0,55,0.00,,,0.19,203.000000,,2013-07-05 16:44:00,
2013-07-05 10:53:00,73.0,56.0,-100.00,NNW,334,3.0,6.0,55,0.00,,,0.19,203.000000,,2013-07-05 16:53:00,
2013-07-05 11:02:00,73.0,56.0,-100.00,NNW,334,3.0,6.0,55,0.00,,,0.19,203.000000,,2013-07-05 17:02:00,
2013-07-05 11:12:00,73.0,56.0,-100.00,NNW,334,3.0,6.0,55,0.00,,,0.19,203.000000,,2013-07-05 17:12:00,
2013-07-05 11:43:00,73.0,55.0,-100.00,ENE,65,1.0,5.0,54,0.00,,,0.17,229.000000,,2013-07-05 17:43:00,
2013-07-05 11:53:00,73.0,55.0,-100.00,ENE,65,1.0,5.0,54,0.00,,,0.17,229.000000,,2013-07-05 17:53:00,
2013-07-05 12:01:00,73.0,55.0,-100.00,ENE,65,1.0,5.0,54,0.00,,,0.17,229.000000,,2013-07-05 18:01:00,
2013-07-05 12:11:00,73.0,55.0,-100.00,ENE,65,1.0,5.0,54,0.00,,,0.17,229.000000,,2013-07-05 18:11:00,
2013-07-05 12:43:00,76.0,56.0,-100.00,ENE,63,3.0,5.0,50,0.00,,,0.15,402.000000,,2013-07-05 18:43:00,
2013-07-05 12:53:00,76.0,56.0,-100.00,ENE,63,3.0,5.0,50,0.00,,,0.15,402.000000,,2013-07-05 18:53:00,
2013-07-05 13:01:00,76.0,56.0,-100.00,ENE,63,3.0,5.0,50,0.00,,,0.15,402.000000,,2013-07-05 19:01:00,
2013-07-05 13:12:00,76.0,56.0,-100.00,ENE,63,3.0,5.0,50,0.00,,,0.15,402.000000,,2013-07-05 19:12:00,
2013-07-05 13:43:00,80.0,57.0,-100.00,ENE,69,6.0,11.0,46,0.00,,,0.15,830.000000,,2013-07-05 19:43:00,
2013-07-05 13:53:00,80.0,57.0,-100.00,ENE,69,6.0,11.0,46,0.00,,,0.15,830.000000,,2013-07-05 19:53:00,
2013-07-05 14:01:00,80.0,57.0,-100.00,ENE,69,6.0,11.0,46,0.00,,,0.15,830.000000,,2013-07-05 20:01:00,
2013-07-05 14:11:00,80.0,57.0,-100.00,ENE,69,6.0,11.0,46,0.00,,,0.15,830.000000,,2013-07-05 20:11:00,
2013-07-05 14:33:00,81.0,57.0,-100.00,ENE,68,7.0,11.0,44,0.00,,,0.15,1052.000000,,2013-07-05 20:33:00,
2013-07-05 14:43:00,81.0,57.0,-100.00,ENE,68,7.0,11.0,44,0.00,,,0.15,1052.000000,,2013-07-05 20:43:00,
2013-07-05 14:53:00,81.0,57.0,-100.00,ENE,68,7.0,11.0,44,0.00,,,0.15,1052.000000,,2013-07-05 20:53:00,
2013-07-05 15:01:00,81.0,57.0,-100.00,ENE,68,7.0,11.0,44,0.00,,,0.15,1052.000000,,2013-07-05 21:01:00,
2013-07-05 15:11:00,81.0,57.0,-100.00,ENE,68,7.0,11.0,44,0.00,,,0.15,1052.000000,,2013-07-05 21:11:00,
2013-07-05 15:43:00,83.0,57.0,-100.00,ENE,74,7.0,16.0,41,0.00,,,0.15,1018.000000,,2013-07-05 21:43:00,
2013-07-05 15:53:00,83.0,57.0,-100.00,ENE,74,7.0,16.0,41,0.00,,,0.15,1018.000000,,2013-07-05 21:53:00,
2013-07-05 16:01:00,83.0,57.0,-100.00,ENE,74,7.0,16.0,41,0.00,,,0.15,1018.000000,,2013-07-05 22:01:00,
2013-07-05 16:11:00,83.0,57.0,-100.00,ENE,74,7.0,16.0,41,0.00,,,0.15,1018.000000,,2013-07-05 22:11:00,
2013-07-05 16:43:00,83.0,55.0,-100.00,ENE,77,8.0,15.0,39,0.00,,,0.15,907.000000,,2013-07-05 22:43:00,
2013-07-05 16:53:00,83.0,55.0,-100.00,ENE,77,8.0,15.0,39,0.00,,,0.15,907.000000,,2013-07-05 22:53:00,
2013-07-05 17:02:00,83.0,55.0,-100.00,ENE,77,8.0,15.0,39,0.00,,,0.15,907.000000,,2013-07-05 23:02:00,
2013-07-05 17:11:00,83.0,55.0,-100.00,ENE,77,8.0,15.0,39,0.00,,,0.15,907.000000,,2013-07-05 23:11:00,
2013-07-05 17:43:00,83.0,54.0,-100.00,East,89,7.0,15.0,37,0.00,,,0.15,742.000000,,2013-07-05 23:43:00,
2013-07-05 17:53:00,83.0,54.0,-100.00,East,89,7.0,15.0,37,0.00,,,0.15,742.000000,,2013-07-05 23:53:00,
2013-07-05 18:01:00,83.0,54.0,-100.00,East,89,7.0,15.0,37,0.00,,,0.15,742.000000,,2013-07-06 00:01:00,
2013-07-05 18:11:00,83.0,54.0,-100.00,East,89,7.0,15.0,37,0.00,,,0.15,742.000000,,2013-07-06 00:11:00,
2013-07-05 18:43:00,79.0,57.0,-100.00,ESE,104,4.0,13.0,47,0.00,,,-99.99,246.000000,,2013-07-06 00:43:00,
2013-07-05 18:53:00,79.0,57.0,-100.00,ESE,104,4.0,13.0,47,0.00,,,-99.99,246.000000,,2013-07-06 00:53:00,
2013-07-05 19:02:00,79.0,57.0,-100.00,ESE,104,4.0,13.0,47,0.00,,,-99.99,246.000000,,2013-07-06 01:02:00,
2013-07-05 19:12:00,79.0,57.0,-100.00,ESE,104,4.0,13.0,47,0.00,,,-99.99,246.000000,,2013-07-06 01:12:00,
2013-07-05 19:43:00,78.0,56.0,-100.00,ENE,70,4.0,10.0,47,0.00,,,0.00,174.000000,,2013-07-06 01:43:00,
2013-07-05 19:53:00,78.0,56.0,-100.00,ENE,70,4.0,10.0,47,0.00,,,0.00,174.000000,,2013-07-06 01:53:00,
2013-07-05 20:02:00,78.0,56.0,-100.00,ENE,70,4.0,10.0,47,0.00,,,0.00,174.000000,,2013-07-06 02:02:00,
2013-07-05 20:12:00,78.0,56.0,-100.00,ENE,70,4.0,10.0,47,0.00,,,0.00,174.000000,,2013-07-06 02:12:00,
2013-07-05 20:34:00,75.0,57.0,-100.00,North,354,6.0,9.0,54,0.00,,,0.00,16.000000,,2013-07-06 02:34:00,
2013-07-05 20:43:00,75.0,57.0,-100.00,North,354,6.0,9.0,54,0.00,,,0.00,16.000000,,2013-07-06 02:43:00,
2013-07-05 20:53:00,75.0,57.0,-100.00,North,354,6.0,9.0,54,0.00,,,0.00,16.000000,,2013-07-06 02:53:00,
2013-07-05 21:02:00,75.0,57.0,-100.00,North,354,6.0,9.0,54,0.00,,,0.00,16.000000,,2013-07-06 03:02:00,
2013-07-05 21:12:00,75.0,57.0,-100.00,North,354,6.0,9.0,54,0.00,,,0.00,16.000000,,2013-07-06 03:12:00,
2013-07-05 21:43:00,73.0,57.0,-100.00,NW,311,9.0,16.0,58,0.00,,,-99.99,0.000000,,2013-07-06 03:43:00,
2013-07-05 21:53:00,73.0,57.0,-100.00,NW,311,9.0,16.0,58,0.00,,,-99.99,0.000000,,2013-07-06 03:53:00,
2013-07-05 22:02:00,73.0,57.0,-100.00,NW,311,9.0,16.0,58,0.00,,,-99.99,0.000000,,2013-07-06 04:02:00,
2013-07-05 22:12:00,73.0,57.0,-100.00,NW,311,9.0,16.0,58,0.00,,,-99.99,0.000000,,2013-07-06 04:12:00,
2013-07-05 22:33:00,68.0,60.0,-100.00,NW,306,6.0,12.0,76,0.01,,,0.01,0.000000,,2013-07-06 04:33:00,
2013-07-05 22:43:00,68.0,60.0,-100.00,NW,306,6.0,12.0,76,0.01,,,0.01,0.000000,,2013-07-06 04:43:00,
2013-07-05 22:53:00,68.0,60.0,-100.00,NW,306,6.0,12.0,76,0.01,,,0.01,0.000000,,2013-07-06 04:53:00,
2013-07-05 23:02:00,68.0,60.0,-100.00,NW,306,6.0,12.0,76,0.01,,,0.01,0.000000,,2013-07-06 05:02:00,
2013-07-05 23:12:00,68.0,60.0,-100.00,NW,306,6.0,12.0,76,0.01,,,0.01,0.000000,,2013-07-06 05:12:00,
2013-07-05 23:34:00,67.0,61.0,-100.00,NW,313,3.0,8.0,80,0.00,,,0.01,0.000000,,2013-07-06 05:34:00,
2013-07-05 23:43:00,67.0,61.0,-100.00,NW,313,3.0,8.0,80,0.00,,,0.01,0.000000,,2013-07-06 05:43:00,
2013-07-05 23:53:00,67.0,61.0,-100.00,NW,313,3.0,8.0,80,0.00,,,0.01,0.000000,,2013-07-06 05:53:00,